sat.trackr.live / text

‹ back to catalog

ONEWEB-0690

NORAD 61598 · 2024-188E

PAYLOAD ACTIVE UNKNOWN

§ Identity

Operator
Country
UK
Launch date
2024-10-20
Launch site
AFWTR
Launch vehicle
Mass (kg)
RCS (m²)

Purposes: comms

External: N2YO · Heavens-Above · Gunter

§ Orbital elements

Epoch: 2026-05-25T01:59:34.096992Z

Period
109.80 min
Inclination
87.8919°
Eccentricity
0.0001886
Mean motion
13.11418334 rev/d
Perigee alt
1,216.2 km
Apogee alt
1,219.1 km
Semi-major
7,595.8 km
B*
-1.3893e-3
RAAN
25.6581°
Arg perigee
61.6180°
Mean anomaly
298.5138°
Rev number
8,160

§ Raw data

ONEWEB-06901 61598U 24188E   26145.08303353 -.00000480  00000+0 -13893-2 0  99942 61598  87.8919  25.6581 0001886  61.6180 298.5138 13.11418334 81605

JSON: /api/v1/satellites/61598 · /tle

For live sub-satellite position, see the globe view (requires WebGL).

§ Visibility from observer

Set your observer location to see the next 7 days of passes ≥ 10°. The values pass through the URL so the page stays shareable.

No JS? Fill the form by hand. The geolocation button needs JavaScript.